Погода в Беренжаке

Россия / Республика Хакасия     54°08′05″N   89°28′19″E
темп.,
°C
ветер,
м/с
пор.,
м/с
влажн.,
%
обл.,
%
осадки,
мм/ч
давл.,
гПа
погр.,
м
11 мая, вт
вт1101:00+1в11871 0.0 102015
04:000всв11917 0.0 101812
07:00+3всв1381100 0.0 1017144
10:00+8в3652100 0.0 10151114
13:00+11всв5738100 0.0 10141660
16:00+12в5735100 0.0 10131870
19:00+11всв3640100 0.0 1014663
22:00+7с2260100 0.0 101622
12 мая, ср
ср1201:00+5ссз227195 0.0 101615
04:00+4ссз2275100 0.0 101717
07:00+6ссз2368100 0.0 1017138
10:00+10св3653100 0.0 10161092
13:00+12св454496 0.1 10152005
16:00+12ссв4543100 0.0 10141953
19:00+11с254686 0.0 10151564
22:00+6ссв116580 0.0 101713
13 мая, чт
чт1301:00+4ссз1172100 0.0 101810
04:00+2юз007799 0.0 101810
07:00+5ююв116648 0.0 1018112
10:00+11всв12426 0.0 10161141
13:00+14св243483 0.0 10132177
16:00+14св2333100 0.0 10122082
19:00+12ссв114399 0.0 10121432
22:00+8ю215817 0.0 101314
14 мая, пт
пт1401:00+6зюз227021 0.0 101318
04:00+5зюз227249 0.0 101315
07:00+8юз2569100 0.0 1012277
10:00+7ююз3882100 0.6 10111033
13:00+6зсз3788100 1.9 10121126
16:00+6зсз4782100 1.7 10131051
19:00+1с3698100 4.8 1019403
22:000сз358613 0.8 1023205
15 мая, сб
сб1501:00−2зюз219191 0.8 102516
04:00−2юз228693 0.0 102533
07:00+2зюз41070100 0.0 1025960
10:00+3зюз61363100 0.0 10221113
13:00+4зюз101965100 0.1 10191050
16:00+4зюз91979100 0.4 1019831
19:00+6зюз387389 0.1 1018608
22:00